Theta_e
313 313 315 317 310 312 315 316 314 317 320 326 332 332 331 331 333 334 335 333 336 337 336 335 329 331 331 332 333 334 335 335 336 333 331 332 328 327 329 329 325 323 325 314 316 327 321 329 325
315 316 317 315 310 313 315 314 315 316 318 328 326 328 323 321 328 321 331 329 334 334 335 334 334 328 331 332 333 334 335 335 334 335 335 334 332 331 330 330 328 324 319 328 317 332 325 326 331
315 315 314 308 309 314 315 314 314 316 319 323 321 320 318 318 317 318 321 330 334 335 335 335 335 330 330 331 331 333 334 334 334 334 334 333 333 331 331 331 330 327 321 321 328 332 326 327 329
314 315 313 309 313 313 313 312 312 314 316 319 319 315 316 316 316 319 322 332 336 336 337 337 336 336 331 330 330 331 332 334 334 334 333 332 332 332 332 332 331 331 327 321 335 333 325 326 328
314 313 308 311 313 313 312 313 312 311 313 316 318 315 315 315 315 316 315 334 336 336 337 335 337 336 335 331 329 328 330 331 332 332 332 332 327 328 330 332 332 331 331 324 331 333 328 324 326
313 310 308 310 313 312 312 313 313 312 312 313 316 315 315 315 315 315 314 316 329 336 336 335 335 335 334 333 330 329 327 328 328 327 325 324 323 325 328 330 333 332 331 329 323 329 330 327 325
310 306 308 309 311 313 313 314 312 312 312 312 314 313 315 314 315 315 314 313 313 317 334 335 335 334 333 332 333 331 330 329 328 327 327 327 326 325 328 329 332 334 333 330 326 324 322 326 325
315 306 309 309 311 314 312 313 311 311 310 312 314 312 313 314 315 315 314 313 312 311 312 317 329 334 335 334 332 332 332 330 329 329 329 328 327 326 327 328 330 333 333 334 328 325 325 320 322
316 308 309 311 312 313 311 311 311 311 311 310 313 314 314 314 315 315 314 312 311 309 309 309 311 317 325 331 332 333 332 332 331 330 331 330 328 327 326 328 329 332 333 334 332 329 324 323 323
310 308 311 310 310 310 311 311 311 311 311 310 312 314 313 313 314 314 313 312 310 308 308 308 308 308 309 310 316 323 330 332 332 332 331 332 330 328 327 327 328 332 332 334 332 328 322 326 326
310 309 310 313 312 313 312 312 312 311 310 310 312 312 312 312 312 312 312 311 309 308 308 308 308 308 308 307 307 307 308 311 322 330 331 331 330 331 331 329 330 331 333 333 332 328 322 324 328
310 311 311 312 311 312 312 312 311 312 312 311 312 312 312 312 312 312 312 311 308 309 309 309 309 308 308 307 307 307 307 307 308 310 316 324 330 332 332 331 331 331 333 332 329 325 322 320 328
310 310 312 312 311 312 312 311 310 312 313 311 312 312 311 312 312 313 313 312 309 309 309 309 308 308 309 308 308 308 308 307 307 307 307 309 313 322 330 333 332 332 332 330 328 327 322 322 328
312 311 312 312 313 311 311 310 310 310 312 311 311 310 311 312 312 313 313 313 311 310 309 309 309 308 307 307 307 307 307 308 308 307 307 307 308 311 315 325 329 329 329 327 323 317 318 320 324
312 311 310 311 311 309 309 307 308 309 312 311 310 311 311 312 312 312 313 313 312 310 309 308 308 307 306 306 306 306 306 307 307 308 308 307 309 309 310 312 321 327 329 324 324 323 322 319 315
307 306 308 310 308 309 307 305 309 311 311 310 311 311 311 311 313 313 313 313 312 310 309 308 307 307 306 306 306 306 306 306 306 307 308 309 310 314 312 314 314 323 327 327 324 324 323 322 320
304 307 306 306 308 307 308 307 306 309 309 310 310 309 310 312 313 314 313 312 311 310 310 308 307 306 306 306 306 306 306 306 306 306 306 308 311 314 315 317 317 320 322 325 325 324 324 323 320
306 306 306 306 306 306 306 305 304 307 309 308 308 308 311 313 312 311 311 311 311 311 310 309 307 306 306 306 306 306 306 306 306 306 306 306 308 311 314 317 317 318 319 322 323 324 322 321 323
308 307 306 305 306 306 305 303 303 306 308 308 307 311 309 310 311 312 312 312 311 311 309 307 307 306 306 306 306 306 305 305 305 306 306 306 306 308 311 316 315 318 318 319 320 321 323 324 323
307 307 306 304 305 306 304 305 305 304 304 306 306 306 306 307 310 310 310 309 308 307 307 307 306 306 305 305 305 305 305 305 305 305 305 306 306 305 308 312 315 315 318 317 318 318 322 319 320
305 307 307 307 305 304 305 304 306 304 305 305 306 306 306 307 307 307 307 307 308 308 307 306 305 304 304 304 304 304 304 304 304 304 304 304 306 306 306 311 313 314 316 317 316 317 318 319 318
305 307 308 307 305 305 305 307 306 305 304 305 307 308 308 308 308 309 308 308 306 305 304 303 303 303 303 303 303 302 302 303 303 303 304 304 304 306 306 310 313 313 315 315 316 316 315 317 318
305 307 306 306 306 305 307 306 304 303 305 305 306 308 308 307 306 305 305 304 303 302 302 302 301 301 301 300 300 299 299 299 300 301 303 304 304 304 307 308 313 313 313 315 317 316 315 314 315
306 305 305 304 304 307 307 306 306 305 304 304 306 307 306 305 304 303 303 302 301 301 300 298 297 297 296 296 295 295 295 297 298 298 300 302 304 305 304 308 310 311 311 312 313 315 315 314 314
304 303 307 306 305 311 305 305 305 302 302 304 305 305 303 302 302 302 301 301 300 300 299 298 297 297 296 295 295 295 295 295 295 295 296 299 301 304 305 304 309 309 309 310 311 312 314 315 314
305 304 302 305 303 305 303 307 304 302 303 305 304 302 301 301 301 301 301 300 300 299 298 297 296 296 294 294 294 294 294 294 295 295 295 296 298 301 304 304 305 308 309 309 310 310 311 312 314
305 304 304 305 302 300 304 304 303 301 301 301 301 301 301 301 301 301 300 301 301 298 296 295 296 295 294 294 293 294 294 294 294 295 294 295 297 299 302 304 305 307 309 308 308 309 311 311 311
305 304 305 303 304 309 306 304 305 302 301 301 301 302 303 301 300 298 298 298 297 295 295 295 295 294 294 294 293 293 293 293 293 294 294 294 295 298 301 302 303 306 307 309 309 309 310 310 311
305 305 304 303 305 309 305 306 303 302 301 301 300 300 298 297 296 296 296 296 295 294 294 294 294 294 293 293 292 292 292 292 292 293 294 294 295 296 300 302 303 305 307 308 309 310 310 311 311
305 305 304 304 304 307 307 307 301 300 300 302 300 298 297 297 296 295 294 294 294 293 293 293 293 292 292 291 291 291 291 291 292 292 293 293 294 295 297 301 303 304 308 309 310 311 311 311 312
Wind_Speed
6 6 5 2 4 5 2 3 2 4 2 6 9 9 8 7 3 4 3 1 2 3 3 2 4 5 4 5 6 6 9 10 10 11 11 9 8 6 4 2 3 4 5 7 9 7 7 9 9
8 6 2 3 5 4 3 3 4 3 3 8 7 5 8 3 6 3 1 2 3 4 6 4 4 6 6 4 5 6 8 8 8 10 10 10 9 7 5 3 2 2 3 6 8 8 7 9 12
4 3 2 4 3 4 3 1 2 3 8 4 4 9 4 3 6 2 7 4 3 5 6 7 5 6 8 7 7 6 7 7 8 9 9 9 8 7 6 5 3 2 1 4 9 10 8 9 11
2 3 6 5 4 3 1 3 6 5 4 7 7 6 5 5 2 6 10 5 3 5 8 8 6 4 7 8 9 9 7 7 8 8 9 7 7 7 7 8 7 6 3 4 11 12 11 11 12
5 4 5 5 2 1 1 3 7 5 4 9 3 3 4 5 5 4 8 5 2 4 7 10 9 6 5 7 8 10 10 9 8 8 9 8 8 9 9 9 10 9 7 6 10 11 11 12 13
4 4 5 2 0 3 2 6 2 3 4 2 5 4 3 5 2 4 6 8 7 3 5 9 7 6 6 9 9 8 9 10 10 10 10 11 10 11 11 11 11 13 11 8 9 11 11 10 13
6 4 3 3 1 4 4 6 4 3 3 5 4 4 7 7 3 3 6 7 8 7 3 8 7 6 8 9 8 11 11 10 11 12 12 12 11 12 12 13 14 14 14 10 10 9 11 13 14
5 5 3 2 2 1 4 2 2 5 2 2 1 3 3 9 6 2 1 6 8 5 5 6 3 5 5 10 10 12 12 12 12 12 12 13 13 13 14 15 15 15 16 14 11 10 11 13 16
4 5 2 1 3 3 1 2 1 1 1 2 3 5 10 8 8 4 0 4 6 3 4 5 5 5 5 5 7 10 15 14 15 15 14 16 16 15 16 17 16 17 17 18 14 12 13 15 16
7 4 3 3 3 3 2 2 2 1 2 1 6 13 11 8 8 6 1 4 6 5 7 7 7 7 6 5 5 6 10 12 14 16 18 17 17 17 17 18 18 19 20 21 16 13 16 17 18
4 3 4 2 3 3 1 1 3 0 2 6 9 13 12 8 7 5 3 2 3 7 8 8 8 8 8 7 7 7 6 5 10 16 16 13 16 22 18 18 20 23 25 23 15 15 17 19 19
5 1 3 3 2 1 0 4 4 4 3 3 6 12 11 10 7 4 3 3 4 6 6 7 8 8 8 9 9 9 8 7 7 8 10 12 14 19 19 19 20 24 28 19 15 15 16 19 18
3 3 1 1 2 3 3 4 4 8 4 6 11 12 10 10 9 9 5 4 4 3 5 8 10 11 11 9 9 8 8 9 10 11 12 12 12 11 12 17 22 28 27 18 12 11 13 17 17
2 1 2 2 4 4 3 4 6 2 4 11 10 11 11 13 11 10 8 4 2 3 6 8 10 11 11 11 11 11 10 9 9 10 12 12 13 12 10 13 11 20 18 14 11 4 7 13 18
2 2 4 3 5 4 6 2 4 3 4 13 11 11 11 14 13 10 10 6 3 1 5 8 9 10 10 11 12 13 13 12 10 9 10 12 12 13 13 11 11 12 23 20 19 25 19 18 18
4 4 4 3 7 2 3 7 3 1 7 10 10 8 11 14 15 14 11 7 3 1 4 7 8 9 10 12 13 14 14 14 13 12 11 11 12 12 12 10 9 12 22 24 24 23 22 26 28
7 1 2 8 4 4 2 6 2 7 7 13 11 7 10 13 16 11 8 4 2 1 4 6 8 10 12 13 14 14 14 15 15 14 13 12 12 12 11 9 7 11 18 20 20 24 26 27 28
3 3 3 5 3 4 3 9 7 11 7 8 7 9 13 17 15 12 9 5 1 2 5 8 10 11 12 14 15 16 16 16 16 15 15 14 13 15 13 12 10 14 20 25 21 22 23 26 29
1 3 5 5 1 3 4 6 9 9 4 6 6 17 18 16 13 13 9 5 0 4 7 9 11 13 16 18 21 21 22 21 18 18 18 16 15 14 16 17 14 15 18 20 22 26 31 32 26
1 3 5 6 1 3 7 6 3 9 5 6 21 24 22 21 16 12 7 2 3 6 9 12 15 16 18 19 20 22 24 24 24 21 18 18 18 16 17 19 20 17 18 19 21 24 27 26 27
3 3 3 5 8 2 5 5 3 6 15 21 21 22 20 16 13 9 4 3 6 9 14 17 17 18 18 19 20 20 20 20 23 23 23 18 17 17 16 18 19 18 20 22 20 22 23 25 25
4 2 3 5 5 4 5 5 2 2 6 8 12 16 15 14 10 7 5 6 9 12 14 16 16 16 18 19 20 22 23 25 26 27 27 25 20 17 16 17 19 20 22 24 22 20 24 24 26
5 2 5 2 3 4 3 1 4 5 2 0 3 9 11 9 7 7 8 8 10 11 13 13 14 16 17 19 21 23 23 24 24 26 26 26 23 18 15 16 19 22 21 22 22 24 27 29 27
6 3 3 4 3 3 2 3 1 3 5 3 3 6 7 8 7 9 9 9 9 11 11 12 14 16 19 21 22 23 25 26 27 28 30 29 26 23 15 17 20 19 24 24 24 21 23 26 28
7 5 4 6 4 4 3 1 4 5 3 8 10 8 6 5 6 7 9 11 12 12 13 14 18 21 24 26 26 25 25 26 27 27 28 30 31 28 25 18 21 23 24 25 28 26 25 27 27
4 2 4 4 3 5 4 5 4 1 8 12 9 6 4 4 7 10 10 13 14 14 15 16 20 22 26 28 29 28 26 26 27 27 27 28 29 30 28 25 20 24 25 25 26 30 31 29 28
2 3 3 1 1 2 3 5 0 3 4 7 5 2 6 8 8 11 14 13 13 13 12 16 20 24 27 31 33 32 30 28 28 28 28 28 28 31 30 27 23 21 23 27 28 30 29 33 32
1 3 1 2 3 5 4 5 4 6 7 4 2 1 7 5 7 11 11 12 12 12 15 19 24 28 32 34 36 35 33 30 28 28 29 28 28 28 28 28 25 23 25 28 30 32 31 28 32
3 1 1 1 3 3 4 5 2 6 5 3 4 11 11 10 15 15 16 13 12 15 20 26 28 33 36 38 39 37 34 31 29 28 29 28 28 28 27 27 27 25 25 23 24 29 31 31 29
2 3 4 3 5 3 3 8 2 5 9 8 2 1 8 13 17 17 17 18 20 26 30 33 35 38 39 39 39 36 33 30 29 29 29 28 29 29 29 27 27 25 25 24 26 27 32 31 30
Wind_Direction
130 133 125 69 58 64 33 11 286 359 54 42 73 85 99 52 33 126 125 354 214 249 217 210 210 204 210 192 182 178 177 177 180 175 176 173 172 171 168 145 98 95 120 140 149 145 161 164 149
121 119 94 80 80 70 305 323 23 344 357 137 70 60 45 57 44 50 152 331 236 238 230 243 258 214 207 214 197 189 189 186 188 186 185 173 178 182 186 193 169 115 125 156 164 162 167 164 149
121 105 36 84 99 130 169 255 296 7 40 99 106 66 66 24 38 27 347 320 238 215 226 220 233 204 211 221 215 203 200 203 202 200 198 195 191 197 200 208 204 192 123 164 176 167 170 167 158
98 62 64 69 44 20 26 349 333 323 29 41 97 60 73 40 26 20 352 317 256 241 216 201 209 219 210 220 222 220 213 212 217 221 212 217 219 222 214 216 216 211 200 154 171 169 171 172 173
67 61 57 83 117 151 6 321 42 44 61 21 30 107 88 80 68 19 11 6 272 241 187 196 192 206 223 221 227 230 227 226 231 232 224 234 241 236 234 225 222 217 210 186 182 180 180 183 183
66 64 60 98 330 339 329 4 42 90 87 48 89 95 94 120 90 36 24 27 23 297 228 229 216 211 221 216 217 226 232 233 235 240 242 246 250 248 238 238 232 225 219 209 199 192 194 195 196
94 72 110 90 112 4 346 357 28 30 23 27 126 104 142 140 132 33 25 22 17 12 329 284 250 215 227 237 235 223 223 227 232 237 241 244 244 244 243 240 240 233 224 218 211 205 196 207 207
79 94 83 26 156 201 324 112 96 55 15 33 52 172 180 170 182 196 347 7 10 20 26 30 348 305 278 254 240 237 234 232 235 236 245 247 244 241 241 240 240 234 238 227 219 214 207 205 209
44 60 80 183 174 215 305 102 76 12 214 154 142 148 153 165 190 210 312 5 358 31 56 46 37 26 354 323 297 267 244 237 244 244 248 252 250 246 247 247 242 230 233 234 230 216 219 208 210
58 85 191 219 200 206 156 178 298 314 342 123 128 140 155 155 181 209 218 349 5 66 77 66 51 38 21 3 339 307 276 263 257 257 245 244 251 252 248 251 247 231 227 236 230 225 215 214 214
51 133 191 228 193 192 191 238 323 104 275 213 188 165 166 186 206 215 164 23 70 80 71 61 43 25 6 358 354 344 330 306 266 262 277 260 246 256 251 248 243 231 227 230 234 235 224 220 220
96 85 181 202 231 225 246 302 300 217 239 217 197 178 176 192 197 193 157 86 97 86 66 40 25 8 357 348 334 325 318 307 291 282 279 275 269 258 253 251 249 237 228 221 229 236 236 223 220
78 203 149 214 280 309 286 282 272 260 236 184 170 181 187 192 182 161 160 123 105 64 40 19 8 3 8 4 1 346 322 307 302 298 292 287 283 289 258 260 248 238 214 206 221 244 234 220 215
53 18 353 336 320 320 318 312 338 313 239 191 189 197 185 189 189 184 173 152 133 35 10 6 3 9 12 15 16 14 6 345 321 307 297 290 285 287 290 268 285 246 202 209 275 167 247 227 223
70 7 359 333 358 333 336 297 229 276 203 188 194 194 197 188 189 194 170 156 134 5 358 355 5 13 15 18 14 10 7 1 351 333 313 299 292 289 290 297 250 266 234 243 214 213 246 231 232
46 60 18 303 1 1 60 276 341 302 198 204 201 197 192 181 178 174 168 162 145 7 345 355 358 357 357 358 359 357 354 351 348 339 325 311 296 292 292 294 281 241 240 236 222 248 245 232 223
16 33 347 326 58 322 41 282 292 320 269 246 231 201 179 164 162 154 149 152 152 338 346 338 334 336 342 345 346 346 346 342 339 333 328 308 294 287 284 282 273 231 237 252 257 243 237 227 215
315 347 316 250 318 354 297 274 296 320 304 272 247 208 165 144 137 139 143 146 166 327 330 330 330 330 332 333 331 331 338 338 338 332 322 315 297 280 272 266 269 248 238 241 248 240 226 215 220
230 257 261 262 268 351 267 276 284 308 305 282 187 137 124 121 127 135 139 140 193 326 330 334 334 334 330 329 329 329 332 336 330 327 323 313 301 287 267 253 260 261 245 244 249 240 224 230 238
270 285 300 281 259 7 291 288 16 31 31 94 126 120 112 113 124 130 135 149 318 340 345 342 342 337 334 333 333 331 328 327 329 327 320 312 301 288 273 260 253 256 254 248 249 246 236 257 254
300 248 272 268 329 294 297 312 46 47 78 99 111 118 122 129 129 121 107 38 1 349 349 347 344 344 342 338 333 329 323 322 325 325 325 321 309 290 276 260 249 252 255 253 251 256 260 250 255
298 207 300 304 8 286 30 295 172 122 64 59 106 116 119 116 111 97 59 9 355 353 347 345 349 352 351 347 345 344 342 336 333 329 324 322 319 304 276 261 247 246 246 253 248 255 264 260 251
261 317 280 230 207 14 17 53 304 107 85 150 132 114 107 96 79 52 27 14 4 356 0 4 3 2 357 352 347 343 340 337 332 331 327 316 315 309 287 259 246 241 251 250 252 247 248 257 258
289 299 53 54 64 9 311 122 258 208 197 177 172 120 97 75 50 25 11 9 10 4 1 1 0 358 351 347 342 339 336 332 330 331 331 333 322 313 302 261 246 246 250 254 253 257 252 259 263
14 22 348 356 13 231 344 332 261 291 208 166 155 144 110 73 36 19 4 358 356 350 346 346 346 344 342 339 335 333 330 326 323 325 325 327 328 323 312 291 255 244 243 252 256 256 255 251 257
11 65 136 281 286 283 309 245 272 13 118 142 149 144 117 58 9 357 349 347 343 336 332 333 336 337 337 336 331 327 323 321 319 319 320 318 321 323 317 304 283 254 248 248 249 253 254 253 254
11 34 163 320 271 22 258 282 34 135 134 153 155 137 29 1 343 340 333 320 307 310 318 325 328 328 329 332 329 324 321 320 316 313 313 313 314 319 320 307 286 274 258 247 248 251 250 252 252
102 175 33 14 322 301 285 275 246 215 207 188 204 321 326 321 328 345 339 325 310 307 310 315 320 321 321 323 323 320 317 315 310 309 310 309 309 312 314 311 295 275 275 266 245 246 249 249 246
355 334 53 143 169 238 296 263 338 247 167 162 32 28 17 6 355 333 331 319 301 302 310 315 314 314 316 318 317 315 312 311 308 306 307 306 305 308 310 309 301 277 281 273 249 242 245 248 246
248 229 162 147 267 242 268 278 15 77 95 78 56 342 340 339 336 333 326 321 314 316 317 318 315 312 313 312 311 312 311 309 305 304 304 304 303 303 305 310 297 283 274 273 256 255 244 243 243